Location: Newark
(49.8969°N, 3.3422°E)
Time: 06:31:29
(UTC+00:00)

Envisat - Pass Details

Date: 09 December 2019
Orbit: 764 x 766 km, 98.1° (Epoch: 27 January)

Event Time Altitude Azimuth Distance (km) Brightness Sun altitude
Rises 05:15:54 0° 28° (NNE) 3,246 6.5 -20.8°
Reaches altitude 10° 05:19:10 10° 50° (NE) 2,313 6.0 -20.3°
Maximum altitude 05:22:13 16° 87° (E) 1,931 6.0 -19.8°
Drops below altitude 10° 05:25:16 10° 124° (SE) 2,302 6.5 -19.3°
Sets 05:28:29 0° 146° (SSE) 3,222 7.0 -18.8°
